User: anonymous   Login
Location: Unspecified
(0.0000°N, 0.0000°E)
Time: 07:41:23
(UTC+00:00)
Language:

COSMOS 2401 - Orbit

View from above orbital plane
View from above orbital plane
View from above satellite
View from above satellite

Ground track
Ground track

The orbit data is extracted from the following two-line orbital elements,

1 27869U 03037B   18116.12208824  .00000048  00000-0  26234-3 0  9991
2 27869  82.4745  32.2088 0023924  82.2097 278.1696 12.45452808667686
Epoch (UTC): 26 April 2018 02:55:48
Eccentricity: 0.0023924
inclination: 82.4745°
perigee height: 1465 km
apogee height: 1502 km
right ascension of ascending node: 32.2088°
argument of perigee: 82.2097°
revolutions per day: 12.45452808
mean anomaly at epoch: 278.1696°
orbit number at epoch: 66768

The dashed part of the orbit path shows where the satellite is in the earth's shadow,  

DLR